Presure
163 169 151 150 186 175 173 173 164 164 160 154 151 154 158 185 156 171 167 205 166 164 197 178 174 170 184 184 182 163 144 159 199 211 185 224 217 243 203 244 243 251 257 262
182 185 180 173 171 171 182 148 145 151 177 171 165 158 166 205 184 164 190 190 175 183 188 159 170 190 162 191 175 185 199 197 209 144 213 221 222 225 230 227 250 244 258 251
171 170 178 183 162 181 171 161 184 169 158 160 155 158 177 181 178 173 169 160 194 168 187 180 189 172 185 169 183 198 194 199 209 213 165 209 225 232 228 236 239 241 257 247
154 178 165 170 174 170 177 180 143 162 182 174 179 204 201 213 172 162 161 158 183 179 191 185 188 185 175 174 180 193 200 202 195 218 207 227 224 233 230 235 245 247 241 260
173 163 176 178 179 174 173 175 169 190 167 197 200 212 201 191 175 160 200 171 179 190 187 115 188 160 197 164 195 200 195 206 209 208 212 222 231 237 234 232 237 247 245 267
189 185 152 223 192 205 180 211 218 206 215 134 217 200 202 190 158 200 192 192 197 193 191 189 187 184 189 189 192 207 207 210 205 218 221 230 227 238 233 234 237 252 248 266
149 166 189 174 195 155 204 212 189 213 201 202 174 197 181 165 197 200 186 178 139 79 182 188 190 181 191 199 132 203 205 217 210 219 229 212 235 239 234 236 238 251 254 268
179 195 210 215 196 201 188 165 205 209 177 141 191 198 188 191 193 194 191 185 190 190 184 195 181 196 173 193 197 211 220 216 211 223 212 216 234 240 241 241 240 250 260 261
220 218 209 156 199 197 177 196 162 194 188 199 139 199 201 203 194 199 195 190 192 186 195 189 190 199 190 202 209 215 215 215 219 218 209 220 234 239 248 249 245 257 266 259
221 193 184 197 198 207 188 205 201 197 193 199 192 201 196 194 198 190 200 198 188 200 184 193 122 193 201 204 210 223 213 211 210 211 209 234 234 245 251 261 251 266 267 277
193 204 210 217 201 208 192 192 194 198 197 206 199 190 205 193 198 205 193 200 200 201 204 131 197 202 209 209 196 214 232 213 216 211 227 238 243 250 251 257 269 274 263 279
203 208 207 213 220 201 198 205 198 202 202 198 207 200 200 201 196 137 207 200 147 122 208 214 206 224 128 213 209 217 207 218 212 218 234 251 254 260 262 262 280 263 282 276
209 212 197 204 184 202 205 199 202 200 192 208 209 195 200 207 208 141 106 131 213 203 217 222 231 216 228 205 206 216 218 206 211 230 248 262 268 274 264 277 265 291 277 278
202 200 210 203 211 209 213 202 175 200 215 211 209 203 183 218 105 137 183 121 216 234 230 234 225 211 218 208 203 205 194 234 237 253 271 286 281 274 277 270 283 277 276 273
210 211 207 212 205 213 140 202 207 204 204 215 214 214 222 227 110 197 223 171 219 222 229 201 209 210 206 209 189 249 258 247 271 283 303 293 284 278 271 285 281 274 272 265
207 217 230 200 208 224 129 217 221 215 212 121 223 161 227 99 248 243 230 137 232 224 211 209 207 194 205 243 271 203 283 298 313 305 294 280 310 281 286 278 272 274 270 244
216 111 209 111 215 205 239 226 220 226 232 208 204 218 224 231 231 217 234 265 259 244 258 205 242 252 272 277 235 320 321 304 294 335 328 305 294 285 276 271 277 272 240 233
202 203 189 216 214 214 203 201 208 213 217 220 125 182 229 227 232 231 227 239 282 271 225 269 269 282 305 325 347 374 351 339 322 316 305 290 263 275 270 282 274 239 233 226
201 212 210 214 215 221 222 215 218 222 232 236 168 243 247 247 259 261 268 285 278 280 291 303 314 319 405 389 363 345 326 318 304 300 280 276 270 274 283 275 239 234 227 218
213 211 213 214 218 242 243 226 235 234 233 238 239 257 259 263 276 277 292 290 313 309 320 305 400 388 380 343 331 319 301 303 281 274 277 273 274 280 275 239 233 227 220 215
87 213 214 228 239 242 235 241 248 242 239 231 259 262 270 275 291 289 322 320 320 294 418 381 364 361 338 324 304 293 304 280 277 277 267 273 280 276 239 231 226 220 214 213
223 224 221 235 243 233 241 246 246 242 255 271 273 273 285 297 318 320 323 291 416 395 360 344 330 318 304 125 304 298 283 277 264 265 274 283 270 239 231 226 218 215 214 209
236 234 237 239 240 242 245 251 254 263 269 274 285 307 314 318 326 298 339 395 381 345 324 312 271 293 304 296 280 279 271 263 266 276 277 273 238 230 226 219 214 215 210 216
257 256 255 251 257 257 256 282 281 282 291 297 294 308 314 302 274 413 384 365 333 317 310 293 304 295 287 275 278 267 265 263 279 276 254 236 228 224 218 215 214 209 213 206
264 270 263 285 284 279 287 292 294 294 291 295 301 291 357 427 401 376 353 326 314 309 299 298 291 285 275 273 270 264 273 283 277 254 237 231 225 216 215 214 213 212 205 210
189 278 279 279 213 214 286 300 317 343 343 316 306 442 422 389 370 347 327 312 304 303 297 289 285 276 269 266 264 275 286 279 257 236 231 225 217 214 213 213 213 205 210 207
289 291 283 318 192 314 332 341 286 290 330 355 430 409 383 362 341 320 306 307 300 292 290 285 273 271 266 251 285 286 284 259 234 232 224 217 215 211 213 210 206 212 205 209
Wind_Speed
89 90 84 92 85 86 82 79 80 81 81 82 78 78 81 66 80 73 76 49 80 80 53 78 85 91 76 76 82 69 66 65 86 90 77 92 87 89 69 83 83 82 79 75
94 90 87 84 83 82 82 75 80 81 78 75 75 81 78 56 66 80 61 59 75 70 58 89 90 66 90 72 90 80 86 88 92 67 91 91 89 89 86 85 84 84 81 80
94 87 88 88 78 84 80 76 78 76 77 77 82 81 71 69 69 75 78 90 56 82 60 77 65 89 73 90 79 86 86 92 93 93 77 88 92 90 89 86 86 85 83 83
72 84 80 81 86 80 78 78 78 75 78 80 78 63 59 56 78 79 87 81 67 77 62 68 70 77 84 87 86 85 91 93 85 98 88 96 92 94 88 87 89 87 84 84
91 77 86 89 85 79 76 74 74 75 79 66 63 59 53 59 75 84 58 83 75 64 69 40 70 76 82 77 86 93 87 96 94 92 93 94 96 95 90 87 89 90 88 86
94 62 61 72 83 79 72 72 61 66 61 63 57 60 57 60 70 66 58 60 67 66 70 71 73 76 82 84 91 98 96 97 92 96 95 98 96 96 91 90 90 93 90 88
70 68 89 80 80 79 75 69 69 66 65 65 66 64 71 79 63 67 62 75 49 24 71 74 79 80 86 93 61 95 97 100 94 97 100 88 97 97 93 92 92 95 91 87
92 80 81 71 75 79 68 82 70 68 73 80 66 70 69 66 65 67 68 65 70 72 71 85 81 89 79 89 94 102 101 97 94 97 93 93 99 98 98 94 93 94 91 86
69 70 80 80 84 80 80 76 77 73 69 76 74 77 78 82 70 79 75 73 75 72 81 80 85 94 89 101 102 101 97 95 96 94 93 95 98 101 100 98 95 94 89 85
69 87 82 81 74 78 74 79 77 78 77 80 69 84 80 79 83 75 86 83 78 87 76 85 52 86 98 101 100 102 94 94 94 94 96 99 99 101 101 98 94 90 84 73
86 78 77 70 84 83 76 80 78 82 81 90 84 76 92 79 85 94 82 91 91 92 94 59 91 98 106 102 90 96 99 94 93 94 100 101 100 100 98 93 91 84 81 64
85 85 84 84 79 84 85 89 84 87 90 88 96 91 90 88 83 51 98 92 64 51 104 105 98 111 62 96 94 97 95 97 95 95 100 102 101 99 96 92 81 78 60 62
87 89 77 85 78 87 88 84 86 85 79 97 97 84 93 98 101 58 41 56 108 92 110 108 109 97 105 89 93 100 100 98 97 99 104 102 100 91 89 79 75 53 56 57
91 89 90 91 94 94 96 91 73 89 102 98 97 92 80 108 36 58 80 51 97 109 108 108 100 92 99 94 96 99 89 104 102 105 105 95 87 82 73 71 55 52 54 53
91 92 93 95 89 98 52 92 96 95 93 103 102 101 107 109 50 87 100 73 92 93 97 87 96 97 97 98 84 105 108 99 104 101 87 79 75 68 67 50 46 49 49 49
84 85 90 78 87 98 50 99 103 101 99 42 104 71 105 39 108 104 94 54 96 92 89 90 95 100 104 113 108 70 102 100 88 79 74 72 46 57 45 43 45 46 43 39
88 40 88 47 91 85 97 98 99 104 107 90 87 96 99 103 97 87 94 114 104 105 112 97 107 116 114 109 86 95 87 84 78 46 41 40 35 37 39 42 43 38 36 41
82 85 80 91 94 95 84 86 95 100 103 102 49 78 107 99 101 95 89 92 115 112 91 110 111 112 103 92 73 53 49 45 39 34 32 29 36 36 40 42 34 32 37 44
78 94 92 94 98 104 107 102 107 107 115 118 74 121 123 124 123 116 118 118 114 112 112 107 98 92 51 48 40 37 34 31 28 22 26 31 32 37 37 30 29 34 39 45
99 95 97 104 108 119 118 116 119 118 116 122 124 130 128 128 127 124 122 116 111 104 96 90 49 43 33 28 25 23 24 24 20 28 24 28 32 30 25 27 32 36 42 48
28 110 110 121 122 122 118 124 128 125 125 121 131 128 127 125 125 121 112 103 97 89 36 38 33 30 28 22 20 23 23 22 25 19 24 29 28 22 23 29 34 38 45 50
114 118 116 125 124 121 129 132 130 128 131 128 126 125 123 118 112 108 104 90 39 34 30 26 24 22 21 44 18 15 19 17 21 24 28 26 20 21 25 30 36 42 47 53
127 125 127 129 129 131 131 132 131 130 126 124 119 112 110 108 105 93 90 37 30 25 24 22 25 23 18 15 18 19 18 21 23 27 23 20 19 22 27 32 40 44 49 55
124 123 123 125 127 128 129 118 118 117 113 112 109 107 104 98 77 33 30 28 26 24 21 25 21 18 19 21 18 20 21 26 25 22 16 19 21 26 31 36 41 46 52 54
111 110 95 101 102 106 104 103 104 104 105 105 102 101 75 37 30 27 26 27 26 24 24 21 21 20 23 22 20 21 26 27 22 18 19 21 25 30 35 39 43 48 52 58
61 91 92 94 69 73 99 94 86 76 77 88 85 34 27 26 25 26 28 25 24 24 22 24 24 26 24 22 23 28 30 23 19 19 22 24 27 33 37 41 46 50 56 60
79 81 63 73 59 80 74 77 87 85 82 72 30 29 23 23 25 26 24 24 24 24 26 27 26 24 25 28 32 26 25 21 21 21 23 26 31 36 39 44 48 54 57 64
Wind_Direction
264 268 270 273 279 279 281 281 283 288 287 289 292 291 292 295 296 293 294 295 299 299 306 291 292 298 306 305 315 315 319 315 325 326 324 328 326 326 316 326 324 325 324 322
271 272 275 278 280 278 281 277 281 284 290 288 288 287 289 286 289 292 290 287 301 296 299 305 296 306 306 320 304 317 326 324 324 319 324 325 325 326 325 324 326 325 323 322
272 275 277 279 268 281 282 280 284 285 284 285 283 284 287 287 285 287 287 291 297 293 300 299 304 299 305 304 313 324 323 321 323 324 321 321 324 324 324 324 324 324 322 323
267 274 276 275 278 281 282 283 273 283 286 285 283 286 286 289 286 287 287 298 299 302 305 301 305 306 301 303 316 320 321 320 320 322 319 323 323 322 322 324 326 323 322 321
269 269 273 275 277 277 279 281 282 283 279 287 287 284 293 288 289 289 305 283 288 302 303 312 308 304 321 308 320 319 315 319 320 317 318 321 321 321 322 322 324 323 321 320
277 246 247 276 276 278 278 286 271 289 288 295 284 293 293 291 297 302 297 301 310 310 311 307 308 306 313 313 313 319 317 317 316 317 318 319 320 319 320 321 321 322 319 319
240 267 282 280 284 262 292 293 277 292 293 294 294 298 297 289 299 302 292 290 302 309 298 307 310 303 311 314 309 315 315 314 314 316 317 318 318 318 318 319 319 320 318 319
268 271 278 277 284 288 279 279 292 288 290 286 298 301 296 300 300 302 301 293 301 303 300 309 298 312 311 309 311 313 313 313 313 315 314 316 316 317 317 316 317 318 318 317
264 265 276 253 282 284 267 288 262 291 289 295 288 298 298 299 299 300 301 300 302 295 307 302 305 310 305 310 312 311 310 310 312 312 311 314 315 315 316 315 315 318 316 315
259 279 270 280 276 282 286 280 284 288 292 293 294 296 297 298 297 294 298 299 295 303 295 305 305 303 307 308 309 307 307 306 307 309 310 313 313 313 314 315 314 315 314 314
277 264 272 263 281 276 273 285 287 289 291 288 292 291 291 294 295 295 297 299 300 302 302 300 300 304 306 306 306 305 306 305 307 307 311 311 311 312 312 313 313 312 312 308
269 269 274 272 262 275 279 278 284 283 285 288 286 289 292 294 294 299 297 297 299 300 299 301 302 302 302 302 301 303 300 305 304 307 308 309 310 311 311 312 311 310 306 308
265 265 275 276 275 279 280 282 284 284 285 283 284 289 290 291 290 296 314 303 296 297 297 300 301 301 301 295 297 301 301 299 303 306 306 307 307 308 309 308 308 305 307 311
268 271 268 276 273 276 274 279 279 283 278 283 285 286 287 285 305 295 296 306 295 295 298 297 297 295 298 295 295 295 305 302 303 304 304 305 304 305 305 305 304 306 310 311
266 266 269 270 275 273 273 280 281 283 283 284 284 286 286 285 301 291 292 294 295 295 296 293 292 293 290 292 300 299 300 301 300 301 301 301 301 302 303 298 303 308 309 312
266 267 265 272 274 269 270 276 276 281 284 291 283 288 286 301 287 288 289 297 292 292 291 289 288 291 291 298 298 302 299 298 298 299 298 299 297 300 296 303 306 307 308 307
270 271 273 274 275 279 277 279 282 281 282 285 281 288 289 290 291 288 293 294 295 297 296 282 291 296 298 299 299 297 295 295 296 288 288 290 289 291 300 300 304 306 304 305
273 275 276 278 279 280 279 280 283 284 286 286 291 289 290 289 288 291 291 294 297 297 298 297 296 296 297 295 292 290 288 285 286 285 285 280 289 299 296 300 303 301 302 307
276 277 279 281 283 282 283 285 286 287 288 289 290 290 290 290 292 294 295 297 298 299 299 299 298 297 293 291 285 282 282 282 281 276 271 287 293 291 296 298 295 298 306 309
277 279 281 283 283 279 278 283 284 286 287 288 290 290 290 291 292 294 295 297 299 299 300 298 294 292 278 278 280 279 273 270 260 270 285 288 288 294 292 289 294 304 307 312
266 278 279 280 280 279 283 285 286 286 285 287 288 288 289 291 292 295 297 300 302 300 288 287 282 278 268 268 272 266 266 254 265 283 283 286 289 284 280 288 300 306 310 315
275 275 278 279 278 282 283 283 284 285 286 286 287 288 290 292 294 296 301 303 288 282 280 273 266 265 263 299 265 253 251 258 273 278 284 285 274 274 285 297 304 308 314 318
273 274 275 276 279 280 281 282 283 283 283 284 287 288 290 292 295 301 299 286 281 265 260 259 272 266 257 237 244 249 259 268 275 283 276 271 268 281 290 300 306 312 317 320
271 272 272 273 276 277 279 280 280 281 283 286 288 290 293 299 295 277 272 266 253 250 243 257 255 241 234 246 245 254 267 279 279 268 241 261 272 284 297 305 310 316 319 323
273 274 274 274 274 274 276 278 281 283 285 288 291 292 292 285 268 264 255 248 246 241 247 239 237 231 241 246 250 260 272 278 262 234 250 260 280 294 303 309 314 318 322 324
272 273 273 274 278 279 279 282 286 291 290 290 292 280 270 261 254 246 241 241 244 242 234 232 229 238 244 252 257 271 280 257 231 241 253 274 291 299 306 312 317 322 322 327
276 277 286 287 282 288 294 295 286 289 294 293 274 268 255 247 240 237 242 235 230 231 232 234 241 244 252 263 272 272 258 223 238 246 271 287 296 304 310 317 321 321 325 326